Weather History for Bismarck, ND

Change the Weather History Date:

Thursday, March 15, 2012

  Actual Average Record
Temperature  
Mean Temperature 49 °F 29 °F  
Max Temperature 67 °F 40 °F 68 °F (1995)
Min Temperature 31 °F 19 °F -36 °F (1897)
Degree Days  
Heating Degree Days 16 36  
Month to date heating degree days 422 582  
Since 1 July heating degree days 5921 7013  
Cooling Degree Days 0 0  
Month to date cooling degree days 0 0  
Year to date cooling degree days 0 0  
Moisture  
Dew Point 25 °F    
Average Humidity 42    
Maximum Humidity 64    
Minimum Humidity 20    
Precipitation  
Precipitation T in 0.03 in 0.68 in (1902)
Month to date precipitation 0.03 0.38  
Year to date precipitation 0.81 1.32  
Snow  
Snow 0.00 in 0.30 in 6.80 in (1902)
Month to date snowfall 0.5 4.7  
Since 1 July snowfall 13.6 42.2  
Snow Depth 0.00 in    
Sea Level Pressure  
Sea Level Pressure 29.99 in    
Wind  
Wind Speed 9 mph (SE)    
Max Wind Speed 18 mph    
Max Gust Speed 24 mph    
Visibility 10 miles    
Events      
T = Trace of Precipitation, MM = Missing Value Source: NWS Daily Summary

Daily Weather History Graph

Daily Weather History Graph

Search for Another Location

Airport:

Trip Planner

Search our weather history database for the weather conditions in past years. The results will help you decide how hot, cold, wet, or windy it might be!

Date:

Astronomy

Mar. 15, 2012 Rise Set
Actual Time 7:54 AM CDT 7:49 PM CDT
Civil Twilight 7:24 AM CDT 8:19 PM CDT
Nautical Twilight 6:49 AM CDT 8:55 PM CDT
Astronomical Twilight 6:13 AM CDT 9:31 PM CDT
Moon 3:46 AM CDT (3/15) 12:47 PM CDT (3/15)
Length of Visible Light 12h 55m
Length of Day
11h 54m
Last Quarter, 43% of the Moon is Illuminated
Mar 15
Last Quarter
Mar 22
New
Mar 30
First Quarter
Apr 6
Full
Apr 13
Last Quarter

Hourly Weather History & Observations

Time (CDT) Temp. Windchill Dew Point Humidity Pressure Visibility Wind Dir Wind Speed Gust Speed Precip Events Conditions
12:52 AM 30.9 °F 23.5 °F 17.1 °F 57% 30.02 in 10.0 mi NE 8.1 mph - N/A   Clear
1:52 AM 33.1 °F 26.1 °F 19.0 °F 56% 30.02 in 10.0 mi East 8.1 mph - N/A   Clear
2:52 AM 34.0 °F 28.8 °F 19.9 °F 56% 30.02 in 10.0 mi ENE 5.8 mph - N/A   Mostly Cloudy
3:52 AM 35.1 °F 28.6 °F 21.9 °F 59% 30.00 in 10.0 mi East 8.1 mph - N/A   Mostly Cloudy
4:52 AM 36.0 °F 32.1 °F 23.0 °F 59% 30.01 in 10.0 mi ENE 4.6 mph - N/A   Overcast
5:52 AM 37.0 °F 33.3 °F 25.0 °F 62% 30.03 in 10.0 mi East 4.6 mph - N/A   Overcast
6:52 AM 39.0 °F 29.6 °F 28.9 °F 67% 29.98 in 10.0 mi SSE 18.4 mph 24.2 mph 0.00 in   Mostly Cloudy
7:52 AM 39.0 °F 36.8 °F 26.1 °F 60% 30.04 in 10.0 mi Variable 3.5 mph - N/A   Clear
8:52 AM 37.9 °F - 27.0 °F 65% 30.07 in 10.0 mi Calm Calm - N/A   Clear
9:52 AM 45.0 °F 41.8 °F 25.0 °F 46% 30.06 in 10.0 mi SSE 5.8 mph - N/A   Clear
10:52 AM 48.9 °F - 21.9 °F 35% 30.06 in 10.0 mi SSE 11.5 mph - N/A   Clear
11:52 AM 53.1 °F - 17.1 °F 24% 30.05 in 10.0 mi South 12.7 mph - N/A   Clear
12:52 PM 57.0 °F - 17.1 °F 21% 30.03 in 10.0 mi SW 10.4 mph - N/A   Clear
1:52 PM 60.1 °F - 19.9 °F 21% 30.00 in 10.0 mi SSW 8.1 mph - N/A   Clear
2:52 PM 64.0 °F - 23.0 °F 21% 29.97 in 10.0 mi South 5.8 mph - N/A   Clear
3:52 PM 64.9 °F - 27.0 °F 24% 29.94 in 10.0 mi South 13.8 mph - N/A   Clear
4:52 PM 66.0 °F - 27.0 °F 23% 29.93 in 10.0 mi South 9.2 mph - N/A   Clear
5:52 PM 64.9 °F - 28.9 °F 26% 29.92 in 10.0 mi SSE 10.4 mph - N/A   Clear
6:52 PM 59.0 °F - 28.9 °F 32% 29.92 in 10.0 mi SSE 9.2 mph - N/A   Clear
7:52 PM 50.0 °F - 30.9 °F 48% 29.93 in 10.0 mi SE 8.1 mph - N/A   Clear
8:52 PM 48.0 °F - 28.9 °F 48% 29.93 in 10.0 mi SSE 9.2 mph - N/A   Clear
9:52 PM 44.6 °F 40.2 °F 28.4 °F 53% 29.91 in 10.0 mi SSE 8.1 mph - N/A   Clear
10:52 PM 46.0 °F 41.4 °F 28.9 °F 51% 29.92 in 10.0 mi SSE 9.2 mph - N/A   Clear
11:52 PM 44.1 °F 39.5 °F 28.9 °F 55% 29.91 in 10.0 mi SSE 8.1 mph - N/A   Clear